Informationen zur Loipe auf der Atzenberger Höhe
 
19.01.2019Höhe
ü. NN
ZeitTemperatur (°C)Nieder-
schlag
Luft-
feuchte
Luft-
druck
Wind
StationaktuellMinimumMaximumaktuellMaximum
Aldingen654 m21:41-5,8-10,0 (05:59)-2,0 (14:43)0,0 l/m²92%1016,57,4 km/h (2 Bft) S-SO14,8 km/h (3 Bft) S-SO (13:07)
Allmannsweiler625 m21:40-8,7-8,7 (21:15)-2,8 (15:25)0,0 l/m²93%1015,50,0 km/h (0 Bft) SO12,9 km/h (3 Bft) SW (13:50)
Allmendingen541 m21:35-8,2-10,2 (07:25)-3,4 (00:35)0,0 l/m²88%1015,90,0 km/h (0 Bft) S-SW16,1 km/h (3 Bft) SO (09:05)
Altshausen574 m21:40-8,2-8,2 (21:38)-2,3 (14:44)0,0 l/m²88%1011,53,2 km/h (1 Bft) W-SW11,3 km/h (2 Bft) N-NO (00:05)
Amstetten-Reutti663 m21:40-6,9-8,0 (06:10)-4,1 (14:40)0,0 l/m²94%1015,60,0 km/h (0 Bft) S-SO27,4 km/h (4 Bft) O (09:45)
Amtzell-Grenis677 m21:40-7,9-8,0 (21:40)-2,1 (14:15)0,0 l/m²88%1016,94,8 km/h (1 Bft) NO16,1 km/h (3 Bft) O-SO (00:00)
Aulendorf570 m21:40-7,6-7,6 (21:35)-2,5 (15:13)0,0 l/m²86%1015,00,0 km/h (0 Bft) S-SW14,5 km/h (3 Bft) NO (00:34)
Bad Krozingen233 m21:41-3,3-5,7 (08:50)0,4 (15:35)0,0 l/m²90%1015,40,0 km/h (0 Bft) O6,6 km/h (2 Bft) W-NW (13:25)
Bad Saulgau595 m21:40-7,6-7,6 (21:40)-1,9 (15:15)0,0 l/m²90%1014,40,0 km/h (0 Bft) W-NW12,9 km/h (3 Bft) W (07:00)
Bad Saulgau-Lampertsweiler627 m21:40-7,2-7,5 (21:00)-2,8 (00:00)0,0 l/m²89%1018,00,0 km/h (0 Bft) O-SO14,5 km/h (3 Bft) S-SO (10:50)
Bad Schussenried572 m21:40-6,8-7,1 (20:40)-2,6 (15:10)0,0 l/m²91%1013,80,0 km/h (0 Bft) SW11,3 km/h (2 Bft) O-NO (00:15)
Bergatreute615 m21:40-9,7-10,2 (20:45)-2,0 (14:20)0,0 l/m²94%1015,70,0 km/h (0 Bft) N12,9 km/h (3 Bft) O-NO (00:00)
Biberach (Riss), Boehringer533 m21:40-8,0-8,1 (21:40)-2,9 (00:00)0,0 l/m²94%1013,80,0 km/h (0 Bft) N16,6 km/h (3 Bft) S (13:50)
Biberach (Riss), Realschule553 m21:40-8,8-8,8 (21:35)-3,2 (00:00)0,0 l/m²92%1016,70,0 km/h (0 Bft) O-SO16,1 km/h (3 Bft) W-SW (12:55)
Bodnegg-Rotheidlen677 m21:40-7,8-8,1 (06:20)-2,7 (14:25)0,0 l/m²93%1015,90,0 km/h (0 Bft) W-NW14,5 km/h (3 Bft) O (00:00)
Burgrieden523 m21:40-6,7-6,7 (21:40)-3,2 (00:00)0,0 l/m²86%1015,50,0 km/h (0 Bft) S12,9 km/h (3 Bft) S (17:35)
Burgrieden-Hochstetten510 m21:40-7,3-7,3 (21:30)-2,8 (22:00)0,0 l/m²91%1015,70,0 km/h (0 Bft) SO14,5 km/h (3 Bft) O (22:10)
Donauwörth411 m21:40-6,1-6,1 (21:40)-0,8 (15:05)0,0 l/m²91%1015,80,0 km/h (0 Bft) O-SO22,5 km/h (4 Bft) O (10:45)
Ebersbach579 m21:40-8,4-8,4 (21:40)-2,6 (00:00)0,0 l/m²92%1016,50,0 km/h (0 Bft) O17,7 km/h (3 Bft) O-NO (00:00)
Ebersbach-Boos605 m21:40-8,4-8,4 (21:40)-2,5 (15:15)0,0 l/m²93%1016,30,0 km/h (0 Bft) O-SO22,5 km/h (4 Bft) O (00:05)
Ebersbach-Menzenweiler661 m21:40-6,7-6,7 (20:20)-3,1 (15:05)0,0 l/m²95%1016,36,4 km/h (2 Bft) O-NO29,0 km/h (5 Bft) O-NO (00:00)
Ehingen535 m21:40-8,3-8,4 (21:25)-3,7 (00:50)0,0 l/m²86%1015,90,0 km/h (0 Bft) N-NO12,8 km/h (3 Bft) N-NO (08:50)
Erlenmoos645 m21:40-8,8-8,8 (21:40)-2,6 (15:15)0,0 l/m²85%1015,80,0 km/h (0 Bft) N-NO0,0 km/h (0 Bft) W (00:00)
Ertingen569 m21:45-7,1-7,1 (21:40)-2,8 (15:20)0,0 l/m²90%1015,40,0 km/h (0 Bft) O-SO12,9 km/h (3 Bft) N-NO (07:10)
Friedrichshafen405 m21:40-4,8-5,0 (08:15)2,1 (15:25)0,0 l/m²87%1015,78,0 km/h (2 Bft) N12,9 km/h (3 Bft) N-NO (22:40)
Günzburg443 m21:40-6,8-7,1 (21:20)-2,2 (15:09)0,0 l/m²89%1013,10,0 km/h (0 Bft) W14,5 km/h (3 Bft) O-SO (09:25)
Höchsten802 m21:40-5,9-7,7 (08:35)-4,1 (14:50)0,0 l/m²93%1013,60,0 km/h (0 Bft) SO38,6 km/h (5 Bft) N-NO (00:35)
Horgenzell618 m21:40-5,1-5,2 (03:50)-3,7 (00:00)0,0 l/m²90%1013,58,0 km/h (2 Bft) O-NO19,3 km/h (3 Bft) NO (00:25)
Hoßkirch632 m21:40-8,6-8,6 (21:30)-2,7 (14:25)0,0 l/m²92%1014,80,0 km/h (0 Bft) SW20,9 km/h (4 Bft) O-NO (00:35)
Isny, Am Dreifingerbach695 m21:40-9,5-11,4 (06:00)-2,3 (15:05)0,0 l/m²90%1015,64,8 km/h (1 Bft) O-SO8,0 km/h (2 Bft) O (05:25)
Isny, Weidachweg706 m21:40-10,7-11,7 (08:20)-1,3 (14:10)0,0 l/m²87%1017,21,6 km/h (1 Bft) SO11,3 km/h (2 Bft) SW (02:20)
Kappel-Grafenhausen163 m21:35-2,8-4,9 (08:20)2,4 (14:45)0,0 l/m²90%1013,30,0 km/h (0 Bft) N6,4 km/h (2 Bft) N-NO (10:25)
Kirchberg an der Iller584 m21:40-8,1-8,1 (21:40)-3,2 (22:10)0,0 l/m²88%1005,20,0 km/h (0 Bft) O-SO8,0 km/h (2 Bft) S-SW (01:55)
Kißlegg-Staibshof709 m21:40-7,0-7,2 (08:10)-1,4 (15:20)0,0 l/m²95%1015,50,0 km/h (0 Bft) N-NO11,3 km/h (2 Bft) O-NO (00:00)
Kressbronn398 m21:42-4,4-5,1 (07:56)-0,4 (14:52)0,0 l/m²83%1014,50,0 km/h (0 Bft) NO12,9 km/h (3 Bft) NO (01:08)
Kreuzthal-Steinberg-Alpe930 m21:30-6,4-10,0 (08:00)2,6 (12:50)0,0 l/m²100%1015,01,8 km/h (1 Bft) O13,7 km/h (3 Bft) W-NW (00:00)
Kreuzthal-Steinberggipfel1040 m21:40-3,7-8,9 (07:50)0,1 (14:10)-84%1015,010,1 km/h (2 Bft) SW22,7 km/h (4 Bft) O-SO (00:40)
Kristberg im Montafon (AT)1425 m21:40-7,9-9,5 (05:20)3,1 (12:15)0,0 l/m²71%1015,26,4 km/h (2 Bft) N12,9 km/h (3 Bft) N (09:00)
Laupheim500 m21:40-6,9-7,0 (21:35)-3,2 (00:00)0,0 l/m²89%1015,10,0 km/h (0 Bft) SW14,5 km/h (3 Bft) S-SW (12:20)
Lindau-Insel420 m21:40-4,6-6,2 (08:30)1,4 (14:45)0,0 l/m²84%1014,88,0 km/h (2 Bft) N-NO11,3 km/h (2 Bft) W (13:55)
Lindau-Stadt412 m21:40-5,0-6,8 (07:45)-0,4 (11:50)0,0 l/m²85%1015,23,2 km/h (1 Bft) NO9,7 km/h (2 Bft) N (01:10)
Maierhöfen im Allgäu733 m21:45-13,8-15,2 (08:10)1,6 (13:30)0,0 l/m²88%1016,90,0 km/h (0 Bft) SW4,8 km/h (1 Bft) O (01:45)
Maselheim-Sulmingen548 m21:40-8,7-8,8 (21:10)-3,7 (22:00)0,0 l/m²92%1016,93,2 km/h (1 Bft) O-SO12,9 km/h (3 Bft) O (22:00)
Mietingen-Baltringen528 m21:40-7,8-7,8 (21:40)-3,3 (00:00)0,0 l/m²87%1017,50,0 km/h (0 Bft) N-NO12,9 km/h (3 Bft) SO (08:20)
Mindelheim-Apfeltrach620 m21:41-12,7-12,7 (21:39)-2,3 (14:59)0,2 l/m²87%1017,03,2 km/h (1 Bft) NW6,4 km/h (2 Bft) NO (06:59)
Neresheim552 m21:00-4,7-5,6 (09:22)-3,8 (15:33)0,0 l/m²91%1012,20,0 km/h (0 Bft) S15,1 km/h (3 Bft) O-SO (09:22)
Neukirch570 m21:40-6,9-7,4 (07:10)-0,8 (13:00)0,0 l/m²92%1015,86,4 km/h (2 Bft) NO9,7 km/h (2 Bft) NO (23:30)
Ochsenhausen, Birkenstraße613 m21:40-10,3-10,3 (21:40)-3,5 (14:15)0,0 l/m²83%1016,28,0 km/h (2 Bft) O11,3 km/h (2 Bft) O-NO (08:05)
Ochsenhausen, Unt. Wiesen575 m21:40-10,1-10,1 (21:40)-3,7 (00:00)0,0 l/m²90%1017,38,0 km/h (2 Bft) S14,5 km/h (3 Bft) S-SO (08:05)
Ostrach619 m21:40-8,4-8,4 (21:30)-1,3 (14:40)0,0 l/m²92%1014,11,6 km/h (1 Bft) S-SO17,7 km/h (3 Bft) N-NO (23:00)
Ravensburg428 m21:40-5,7-5,7 (21:40)-0,4 (15:10)0,0 l/m²89%1014,98,0 km/h (2 Bft) N16,1 km/h (3 Bft) N-NO (01:45)
Ravensburg-Wernsreute511 m21:40-6,9-7,0 (21:20)-1,7 (15:25)0,0 l/m²91%1017,79,7 km/h (2 Bft) N24,1 km/h (4 Bft) N-NO (22:00)
Reichenbach an der Fils343 m21:40-5,2-5,2 (21:30)-1,8 (11:20)0,0 l/m²84%1017,43,2 km/h (1 Bft) O-SO24,1 km/h (4 Bft) O (20:10)
Reinstetten559 m21:40-10,3-10,3 (21:40)-3,2 (00:00)0,0 l/m²91%1016,24,8 km/h (1 Bft) S17,7 km/h (3 Bft) SO (09:35)
Riedlingen530 m21:40-6,9-6,9 (21:40)-3,2 (15:25)0,0 l/m²91%1015,60,0 km/h (0 Bft) O-NO12,9 km/h (3 Bft) O-NO (00:45)
Schemmerhofen520 m21:40-8,2-8,3 (21:40)-3,0 (00:00)0,0 l/m²91%1015,33,2 km/h (1 Bft) SW12,9 km/h (3 Bft) N-NO (04:00)
Silbertal im Montafon (AT)884 m21:40-7,9-9,2 (06:40)-4,6 (14:50)0,0 l/m²90%1017,50,0 km/h (0 Bft) SO3,2 km/h (1 Bft) S-SO (02:00)
Tettnang466 m21:40-4,8-5,9 (07:35)-0,5 (14:55)0,0 l/m²85%1014,18,0 km/h (2 Bft) O-NO14,5 km/h (3 Bft) O (01:05)
Tuttlingen662 m21:40-7,7-9,6 (05:10)-3,9 (14:35)0,0 l/m²89%1015,83,2 km/h (1 Bft) O-SO11,3 km/h (2 Bft) O-SO (14:40)
Ummendorf547 m21:40-9,2-9,2 (20:55)-3,4 (01:30)0,0 l/m²89%1016,66,4 km/h (2 Bft) O-SO16,1 km/h (3 Bft) SW (13:05)
Ummendorf-Fischbach558 m21:40-10,2-10,3 (21:40)-3,9 (01:25)0,0 l/m²90%1017,20,0 km/h (0 Bft) SO14,5 km/h (3 Bft) O-NO (01:35)
Waldburg707 m21:40-7,4-7,4 (06:45)-3,2 (13:05)0,0 l/m²92%1015,20,0 km/h (0 Bft) N14,5 km/h (3 Bft) N (00:15)
Waltenhofen im Allgäu720 m21:40-12,7-13,7 (07:35)-0,8 (13:35)0,2 l/m²89%1016,30,0 km/h (0 Bft) S-SW4,8 km/h (1 Bft) S-SW (11:55)
Weingarten500 m21:40-7,5-7,5 (21:40)-1,5 (14:25)0,0 l/m²88%1015,43,2 km/h (1 Bft) O-NO8,0 km/h (2 Bft) O-NO (00:55)
Winterlingen785 m21:15-7,6-10,0 (07:00)-3,9 (16:00)0,0 l/m²96%1014,12,9 km/h (1 Bft) SW7,2 km/h (2 Bft) S-SO (10:40)

niederschlagsdatenbank | info | login - erfassung

Sollten Sie Interesse haben, an der Niederschlagsdatenbank teilzunehmen, finden Sie > hier < weitere Informationen.
< 2018

Grafische Darstellung der Jahresniederschäge 2019    -    derzeit 103 Stationen

< 2018
 
wetterstationen
wetterstationen
- derzeit 73 Stationen
niederschlagsdatenbank
wetterstationen
- kartographische Darstellung
niederschlagsdatenbank
niederschlagsstationen
- derzeit 103 Stationen
niederschlagsdatenbank
niederschlagsstationen
- kartographische Darstellung
 
 
Fr. 7.30 Uhr - Sa. 7.30 Uhr (MEZ)
1.Waldburg2,0 l/m²
2.Ulm1,5 l/m²
3.Amstetten-Reutti0,8 l/m²
4.Langenau0,5 l/m²
5.Dornstadt-Tomerdingen0,5 l/m²
6.Eberhardzell
Lilienweg
0,1 l/m²
7.Eislingen0,1 l/m²
8.Langenenslingen0,1 l/m²
9.Kreuzthal-Steinberg-Alpe0,0 l/m²
10.Ehingen
Rosenstraße
0,0 l/m²
11.Füramoos0,0 l/m²
12.Ehingen
Schillerstraße
0,0 l/m²
13.Ravensburg-Schmalegg0,0 l/m²
 
Sa. 19.01.2019 - 7.30 Uhr (MEZ)
1.Kreuzthal-Steinberg-Alpe108 cm
2.Isny54 cm
3.Leutkirch-Adrazhofen45 cm
4.Waldburg40 cm
5.Bad Wurzach-Seibranz39 cm
6.Münsingen-Rietheim34 cm
7.Schelklingen-Gundershofen24 cm
8.Eberhardzell
Lilienweg
19 cm
9.Amstetten-Reutti18 cm
10.Horgenzell-Ringgenweiler9 cm
11.Tuttlingen-Möhringen
Eßlinger Straße
8 cm
12.Ravensburg-Schmalegg7 cm
13.Langenenslingen2 cm
14.Ehingen
Schillerstraße
1 cm
15.Bad Saulgau
Walserweg
Reste
16.Ulmalles wieder weg
17.Moosburgstark angezuckert
18.AulendorfReste
19.BalzheimReste
20.Weingarten
Marienstraße
Reste
21.Riedhausenr
22.Pfaffenhofen-KadeltshofenReste
23.Langenauca 1cm
24.Öpfingen"Reste"
25.WolpertswendeReste
26.Weingarten
Laurastraße
Reste
 
  treffpunkt & service
--- Anzeigen --------------------------------
zugriffe:
insgesamt: 40.645.852
aktueller monat: 318.933
heute: 11.845
momentan online: 61
 
 
monatshöchstwert: 653.625
vorheriger monat: 400.931
gestern: 9.684
tageshöchstwert: 45.129
 
wetterwarte süd
 
konradstraße 3
info@wetterwarte-sued.com
roland roth
 
88427 bad schussenried